Location: Unspecified
(0.0000°N, 0.0000°E)
Time: 06:04:22
(UTC+00:00)

Envisat - Pass Details

Date: 03 August 2020
Orbit: 764 x 766 km, 98.1° (Epoch: 13 August)

Event Time Altitude Azimuth Distance (km) Brightness Sun altitude
Rises 19:01:43 0° 208° (SSW) 3,230 6.4 -13.3°
Reaches altitude 10° 19:06:15 10° 246° (WSW) 2,300 6.2 -14.3°
Maximum altitude 19:07:14 11° 257° (WSW) 2,262 6.4 -14.6°
Drops below altitude 10° 19:08:13 10° 269° (W) 2,298 6.7 -14.8°
Sets 19:12:46 0° 307° (NW) 3,219 7.6 -15.9°
